DW6267 Weather Reports


Display with metric or nautical units.
time (UTC)temp
F
wind
direction
speed
MPH
gust
MPH
rain 1hr
in
rain 24hr
in
rain mn
in
humidity
%
barometer
mb
20260906040333 47 68 0.0 0.0 0.00 0.00 0.04 100 1015.6
20260906030335 48 68 0.0 0.0 0.00 0.00 0.04 96 1015.7
20260906020344 51 75 0.0 0.0 0.00 0.00 0.04 82 1015.3
20260906010335 54 300 0.0 0.0 0.00 0.00 0.02 73 1015.6
20260906000336 55 248 0.0 0.0 0.00 0.00 0.02 80 1014.4
20260905230333 55 292 0.0 0.0 0.00 0.00 0.02 81 1015.3
20260905220328 60 144 0.0 0.0 0.00 0.00 0.00 53 1014.6
20260905210345 60 95 0.0 0.0 0.00 0.00 0.00 50 1014.5
20260905200356 60 77 0.0 0.0 0.00 0.00 0.00 54 1015.3
20260905190341 59 96 0.0 0.0 0.00 0.00 0.00 54 1015.4
20260905180357 57 134 0.0 0.0 0.00 0.00 0.00 56 1015.3
20260905170332 51 359 0.0 0.0 0.00 0.00 0.00 74 1015.9
20260905160338 44 359 0.0 0.0 0.00 0.00 0.00 100 1016.8
20260905150340 38 359 0.0 0.0 0.00 0.00 0.00 100 1016.4
20260905140348 37 359 0.0 0.0 0.00 0.00 0.00 100 1016.3
20260905130328 37 359 0.0 0.0 0.00 0.00 0.00 100 1015.9
20260905120405 37 359 0.0 0.0 0.00 0.00 0.00 100 1015.9
20260905110330 38 359 0.0 0.0 0.00 0.00 0.00 100 1016.0
20260905100347 39 359 0.0 0.0 0.00 0.00 0.00 100 1015.9
20260905090353 39 359 0.0 0.0 0.00 0.00 0.00 100 1015.0
20260905080339 40 359 0.0 0.0 0.00 0.00 0.00 98 1015.4
20260905070341 42 359 0.0 0.0 0.00 0.00 0.00 95 1014.7
20260905060332 43 359 0.0 0.0 0.00 0.00 0.01 92 1014.7
20260905050354 45 359 0.0 0.0 0.00 0.00 0.01 87 1014.2